When you browse on this site, cookies collect data to enhance your experience and personalize the content and advertising you see.
Visit our Privacy Policy to learn more. By continuing to use the site, you agree to this use of cookies and data.
  • In Slovakia
  • List of Countries
  • For 7 days
  • Water Temperature
  • Satellite Maps
  • Weather Map
  • Weather Widgets
  • user-avatar
    Login

    Hourly Weather Wydale

    Today, 17 December, Monday

    Time Temperature Precipitation Wind Pressure Humidity
    00:00 -4°C° 0 mm 2 mps 743 mmHg 83%
    01:00 -4°C° 0 mm 2 mps 743 mmHg 83%
    02:00 -4°C° 0 mm 2 mps 743 mmHg 83%
    03:00 -4°C° 0 mm 2 mps 743 mmHg 82%
    04:00 -4°C° 0 mm 2 mps 743 mmHg 82%
    05:00 -4°C° 0 mm 2 mps 743 mmHg 83%
    06:00 -4°C° 0 mm 2 mps 743 mmHg 84%
    07:00 -4°C° 0 mm 2 mps 744 mmHg 85%
    08:00 -4°C° 0 mm 2 mps 744 mmHg 84%
    09:00 -3°C° 0 mm 2 mps 744 mmHg 82%
    10:00 -2°C° 0 mm 2 mps 745 mmHg 80%
    11:00 -2°C° 0 mm 2 mps 745 mmHg 79%
    12:00 +1°C° 0 mm 1 mps 745 mmHg 78%
    13:00 +2°C° 0 mm 1 mps 745 mmHg 78%
    14:00 +1°C° 0 mm 1 mps 745 mmHg 81%
    15:00 0°C° 0 mm 1 mps 746 mmHg 84%
    16:00 0°C° 0 mm 1 mps 746 mmHg 88%
    17:00 -1°C° 0 mm 1 mps 747 mmHg 88%
    18:00 -1°C° 0 mm 1 mps 747 mmHg 88%
    19:00 -1°C° 0 mm 1 mps 747 mmHg 89%
    20:00 0°C° 0 mm 1 mps 748 mmHg 88%
    21:00 0°C° 0 mm 1 mps 748 mmHg 88%
    22:00 0°C° 0 mm 1 mps 749 mmHg 88%
    23:00 0°C° 0 mm 1 mps 749 mmHg 88%

    Tomorrow, 18 December, Tuesday

    Time Temperature Precipitation Wind Pressure Humidity
    00:00 0°C° 0 mm 1 mps 749 mmHg 88%
    01:00 0°C° 0 mm 1 mps 749 mmHg 88%
    02:00 0°C° 0 mm 1 mps 749 mmHg 88%
    03:00 0°C° 0 mm 1 mps 749 mmHg 88%
    04:00 0°C° 0 mm 1 mps 749 mmHg 88%
    05:00 0°C° 0 mm 1 mps 749 mmHg 88%
    06:00 0°C° 0 mm 1 mps 749 mmHg 88%
    07:00 0°C° 0 mm 1 mps 750 mmHg 88%
    08:00 0°C° 0 mm 1 mps 750 mmHg 86%
    09:00 +1°C° 0 mm 1 mps 750 mmHg 84%
    10:00 +2°C° 0 mm 1 mps 750 mmHg 82%
    11:00 +2°C° 0 mm 1 mps 750 mmHg 81%
    12:00 +3°C° 0 mm 1 mps 749 mmHg 81%
    13:00 +4°C° 0 mm 1 mps 749 mmHg 80%
    14:00 +3°C° 0 mm 1 mps 749 mmHg 82%
    15:00 +2°C° 0 mm 1 mps 749 mmHg 85%
    16:00 +1°C° 0 mm 1 mps 749 mmHg 87%
    17:00 +1°C° 0 mm 1 mps 749 mmHg 88%
    18:00 0°C° 0 mm 1 mps 749 mmHg 88%
    19:00 0°C° 0 mm 1 mps 749 mmHg 89%
    20:00 0°C° 0 mm 1 mps 748 mmHg 89%
    21:00 0°C° 0 mm 1 mps 748 mmHg 89%
    22:00 0°C° 0 mm 1 mps 748 mmHg 89%
    23:00 0°C° 0 mm 1 mps 748 mmHg 88%

    Day after tomorrow, 19 December, Wednesday

    Time Temperature Precipitation Wind Pressure Humidity
    00:00 -2°C° 0 mm 2 mps 748 mmHg 88%
    01:00 -2°C° 0 mm 2 mps 748 mmHg 88%
    02:00 -3°C° 0 mm 2 mps 747 mmHg 88%
    03:00 -3°C° 0 mm 2 mps 747 mmHg 87%
    04:00 -3°C° 0 mm 2 mps 747 mmHg 87%
    05:00 -3°C° 0 mm 2 mps 746 mmHg 86%
    06:00 -3°C° 0 mm 2 mps 746 mmHg 85%
    07:00 -3°C° 0 mm 2 mps 746 mmHg 84%
    08:00 -2°C° 0 mm 2 mps 746 mmHg 80%
    09:00 -1°C° 0 mm 2 mps 746 mmHg 77%
    10:00 -1°C° 0 mm 2 mps 746 mmHg 74%
    11:00 +1°C° 0 mm 2 mps 746 mmHg 72%
    12:00 +2°C° 0 mm 2 mps 746 mmHg 71%
    13:00 +2°C° 0 mm 2 mps 746 mmHg 70%
    14:00 +1°C° 0 mm 2 mps 746 mmHg 73%
    15:00 -1°C° 0 mm 2 mps 745 mmHg 77%
    16:00 -1°C° 0 mm 2 mps 745 mmHg 80%
    17:00 -2°C° 0 mm 3 mps 745 mmHg 81%
    18:00 -2°C° 0 mm 3 mps 745 mmHg 81%
    19:00 -2°C° 0 mm 3 mps 745 mmHg 82%
    20:00 -2°C° 0 mm 3 mps 745 mmHg 81%
    21:00 -2°C° 0 mm 2 mps 745 mmHg 80%
    22:00 -2°C° 0 mm 2 mps 745 mmHg 80%
    23:00 -2°C° 0 mm 2 mps 745 mmHg 79%

    20 December, Thursday

    Time Temperature Precipitation Wind Pressure Humidity
    00:00 -2°C° 0 mm 2 mps 745 mmHg 79%
    01:00 -2°C° 0 mm 2 mps 745 mmHg 78%
    02:00 -2°C° 0 mm 2 mps 744 mmHg 78%
    03:00 -2°C° 0 mm 2 mps 744 mmHg 77%
    04:00 -2°C° 0 mm 2 mps 744 mmHg 77%
    05:00 -2°C° 0 mm 2 mps 744 mmHg 77%
    06:00 -2°C° 0 mm 2 mps 744 mmHg 78%
    07:00 -2°C° 0 mm 2 mps 744 mmHg 78%
    08:00 -1°C° 0 mm 2 mps 744 mmHg 78%
    09:00 -1°C° 0 mm 3 mps 744 mmHg 77%
    10:00 -1°C° 0 mm 3 mps 744 mmHg 77%
    11:00 0°C° 0 mm 3 mps 744 mmHg 76%
    12:00 0°C° 0 mm 3 mps 744 mmHg 76%
    13:00 0°C° 0 mm 3 mps 744 mmHg 76%
    14:00 0°C° 0 mm 3 mps 744 mmHg 78%
    15:00 -1°C° 0 mm 3 mps 744 mmHg 81%
    16:00 -1°C° 0 mm 2 mps 743 mmHg 83%
    17:00 -1°C° 0.1 mm 2 mps 743 mmHg 84%
    18:00 -1°C° 0.1 mm 2 mps 743 mmHg 86%
    19:00 -1°C° 0.1 mm 2 mps 743 mmHg 87%
    20:00 -1°C° 0 mm 2 mps 743 mmHg 87%
    21:00 -1°C° 0 mm 2 mps 743 mmHg 88%
    22:00 -2°C° 0 mm 2 mps 744 mmHg 88%
    23:00 -1°C° 0.1 mm 2 mps 743 mmHg 89%

    21 December, Friday

    Time Temperature Precipitation Wind Pressure Humidity
    00:00 -1°C° 0.1 mm 2 mps 743 mmHg 89%
    01:00 -1°C° 0.1 mm 2 mps 743 mmHg 89%
    02:00 -1°C° 0.2 mm 2 mps 743 mmHg 90%
    03:00 -1°C° 0.2 mm 2 mps 743 mmHg 90%
    04:00 -1°C° 0.2 mm 2 mps 743 mmHg 91%
    05:00 -1°C° 0.4 mm 2 mps 743 mmHg 92%
    06:00 -1°C° 0.4 mm 2 mps 743 mmHg 93%
    07:00 -1°C° 0.4 mm 2 mps 743 mmHg 94%
    08:00 -1°C° 0.4 mm 2 mps 743 mmHg 94%
    09:00 -1°C° 0.4 mm 2 mps 743 mmHg 93%
    10:00 +1°C° 0.4 mm 2 mps 743 mmHg 93%
    11:00 +1°C° 0.2 mm 2 mps 743 mmHg 92%
    12:00 +1°C° 0.2 mm 2 mps 743 mmHg 92%
    13:00 +2°C° 0.2 mm 2 mps 743 mmHg 92%
    14:00 +1°C° 0 mm 2 mps 743 mmHg 92%
    15:00 +1°C° 0 mm 2 mps 742 mmHg 92%
    16:00 -1°C° 0 mm 2 mps 742 mmHg 93%
    17:00 -1°C° 0 mm 2 mps 742 mmHg 92%
    18:00 -1°C° 0 mm 2 mps 742 mmHg 92%
    19:00 -1°C° 0 mm 3 mps 742 mmHg 92%
    20:00 -1°C° 0 mm 3 mps 742 mmHg 92%
    21:00 -1°C° 0 mm 3 mps 741 mmHg 91%
    22:00 -1°C° 0 mm 3 mps 741 mmHg 91%
    23:00 0°C° 0.1 mm 3 mps 741 mmHg 90%

    22 December, Saturday

    Time Temperature Precipitation Wind Pressure Humidity
    00:00 0°C° 0.1 mm 3 mps 740 mmHg 89%
    01:00 0°C° 0.1 mm 3 mps 740 mmHg 88%
    02:00 0°C° 0.3 mm 3 mps 739 mmHg 88%
    03:00 -1°C° 0.3 mm 4 mps 739 mmHg 87%
    04:00 0°C° 0.3 mm 4 mps 738 mmHg 87%
    05:00 0°C° 0.7 mm 4 mps 738 mmHg 88%
    06:00 0°C° 0.7 mm 5 mps 738 mmHg 89%
    07:00 0°C° 0.7 mm 5 mps 738 mmHg 89%
    08:00 +1°C° 0.3 mm 5 mps 738 mmHg 90%
    09:00 +1°C° 0.3 mm 5 mps 738 mmHg 91%
    10:00 +2°C° 0.3 mm 5 mps 738 mmHg 92%
    11:00 +2°C° 0.1 mm 5 mps 738 mmHg 92%
    12:00 +2°C° 0.1 mm 5 mps 738 mmHg 91%
    13:00 +2°C° 0.1 mm 5 mps 738 mmHg 91%
    14:00 +3°C° 0.3 mm 4 mps 738 mmHg 92%
    15:00 +3°C° 0.3 mm 4 mps 739 mmHg 92%
    16:00 +3°C° 0.3 mm 4 mps 739 mmHg 93%
    17:00 +3°C° 0.4 mm 4 mps 739 mmHg 93%
    18:00 +3°C° 0.4 mm 4 mps 739 mmHg 93%
    19:00 +3°C° 0.4 mm 4 mps 739 mmHg 94%
    20:00 +3°C° 0.3 mm 4 mps 739 mmHg 93%
    21:00 +3°C° 0.3 mm 4 mps 740 mmHg 93%
    22:00 +3°C° 0.3 mm 4 mps 740 mmHg 92%
    23:00 +3°C° 0.4 mm 4 mps 740 mmHg 92%
    Show more